TAP210 KJFK-LPPT

Flight info

Callsign TAP210
Flight time 6h 21m
Altitude 35000
Route SHIPP Y487 ISLES DCT JENYY DCT JOBOC/M078F350 DCT 42N060W 43N050W 4230N04000W/M078F370 41N030W 3930N02000W DCT GUNTI/N0446F370 DCT NEGRI/N0444F380 DCT XANEL/N0448F370 DCT LAZET
Aircraft A21N/M-SDE2E3FGHIRWXY/LB1

Departure

Time 2026-05-07 12:29
Airport John F. Kennedy International Airport (KJFK)

Arrival

Time 2026-05-07 18:51
Airport Lisbon Humberto Delgado Airport (LPPT)
Time Latitude Longitude Altitude Speed Heading
2026-05-07 12:18 40.64394 -73.79247 17 ft 0 kts 101°
2026-05-07 12:21 40.64394 -73.79249 17 ft 1 kts 101°
2026-05-07 12:22 40.64396 -73.79268 17 ft 2 kts 98°
2026-05-07 12:22 40.64399 -73.79288 17 ft 2 kts 100°
2026-05-07 12:22 40.64401 -73.79308 17 ft 2 kts 99°
2026-05-07 12:22 40.64404 -73.79327 17 ft 1 kts 99°
2026-05-07 12:23 40.64405 -73.79334 17 ft 0 kts 100°
2026-05-07 12:24 40.64394 -73.79309 17 ft 7 kts 148°
2026-05-07 12:24 40.64325 -73.79307 16 ft 10 kts 200°
2026-05-07 12:25 40.64263 -73.79369 16 ft 12 kts 223°
2026-05-07 12:25 40.64207 -73.79476 16 ft 15 kts 249°
2026-05-07 12:25 40.64138 -73.79595 16 ft 19 kts 198°
2026-05-07 12:25 40.63994 -73.79522 16 ft 23 kts 134°
2026-05-07 12:26 40.63905 -73.79332 15 ft 24 kts 120°
2026-05-07 12:26 40.63815 -73.79137 15 ft 24 kts 120°
2026-05-07 12:26 40.63731 -73.78951 15 ft 23 kts 120°
2026-05-07 12:26 40.63650 -73.78764 15 ft 23 kts 118°
2026-05-07 12:27 40.63567 -73.78588 15 ft 22 kts 127°
2026-05-07 12:27 40.63491 -73.78421 15 ft 20 kts 120°
2026-05-07 12:27 40.63418 -73.78256 14 ft 20 kts 120°
2026-05-07 12:27 40.63349 -73.78099 14 ft 19 kts 114°
2026-05-07 12:28 40.63272 -73.78006 14 ft 16 kts 191°
2026-05-07 12:28 40.63214 -73.78087 14 ft 15 kts 299°
2026-05-07 12:28 40.63226 -73.78115 14 ft 0 kts 300°
2026-05-07 12:28 40.63249 -73.78165 14 ft 29 kts 301°
2026-05-07 12:29 40.63480 -73.78675 15 ft 97 kts 299°
2026-05-07 12:29 40.63932 -73.79677 16 ft 154 kts 301°
2026-05-07 12:29 40.64550 -73.81036 272 ft 178 kts 302°
2026-05-07 12:29 40.65069 -73.82478 969 ft 179 kts 283°
2026-05-07 12:30 40.64782 -73.84061 1570 ft 194 kts 236°
2026-05-07 12:30 40.63699 -73.85181 2096 ft 207 kts 218°
2026-05-07 12:30 40.62439 -73.86271 2443 ft 221 kts 219°
2026-05-07 12:30 40.61155 -73.87462 2879 ft 232 kts 221°
2026-05-07 12:31 40.59730 -73.88500 3534 ft 239 kts 198°
2026-05-07 12:31 40.58032 -73.88468 3993 ft 258 kts 162°
2026-05-07 12:31 40.56540 -73.87083 4318 ft 278 kts 128°
2026-05-07 12:31 40.55549 -73.84817 4803 ft 290 kts 115°
2026-05-07 12:32 40.54750 -73.82368 5462 ft 294 kts 114°
2026-05-07 12:32 40.53940 -73.79887 6093 ft 299 kts 116°
2026-05-07 12:32 40.53088 -73.77405 6739 ft 303 kts 119°
2026-05-07 12:32 40.52177 -73.74882 7374 ft 306 kts 121°
2026-05-07 12:33 40.50283 -73.69839 8619 ft 312 kts 122°
2026-05-07 12:33 40.49309 -73.67278 9274 ft 314 kts 123°
2026-05-07 12:33 40.48361 -73.64786 9776 ft 300 kts 123°
2026-05-07 12:34 40.47446 -73.62367 9643 ft 291 kts 124°
2026-05-07 12:34 40.46539 -73.60008 9265 ft 291 kts 123°
2026-05-07 12:34 40.45624 -73.57642 8872 ft 291 kts 123°
2026-05-07 12:34 40.44709 -73.55275 8528 ft 295 kts 123°
2026-05-07 12:35 40.43768 -73.52842 8458 ft 304 kts 122°
2026-05-07 12:35 40.42802 -73.50326 8775 ft 316 kts 122°
2026-05-07 12:35 40.41821 -73.47763 9433 ft 317 kts 122°
2026-05-07 12:35 40.40842 -73.45198 10095 ft 317 kts 123°
2026-05-07 12:36 40.39834 -73.42578 10491 ft 328 kts 123°
2026-05-07 12:36 40.38777 -73.39852 10764 ft 343 kts 123°
2026-05-07 12:36 40.37669 -73.36993 11031 ft 357 kts 123°
2026-05-07 12:36 40.36534 -73.34061 11285 ft 371 kts 123°
2026-05-07 12:37 40.35330 -73.30942 11528 ft 385 kts 123°
2026-05-07 12:37 40.34111 -73.27791 11759 ft 398 kts 123°
2026-05-07 12:37 40.32791 -73.24560 11986 ft 408 kts 126°
2026-05-07 12:37 40.31264 -73.21342 12208 ft 418 kts 129°
2026-05-07 12:38 40.29655 -73.18108 12439 ft 429 kts 129°
2026-05-07 12:38 40.28005 -73.14813 12803 ft 436 kts 129°
2026-05-07 12:38 40.26348 -73.11497 13277 ft 440 kts 129°
2026-05-07 12:38 40.24672 -73.08134 13735 ft 443 kts 130°
2026-05-07 12:39 40.22993 -73.04781 14174 ft 446 kts 129°
2026-05-07 12:39 40.21279 -73.01355 14610 ft 450 kts 130°
2026-05-07 12:39 40.19562 -72.97922 15055 ft 453 kts 130°
2026-05-07 12:39 40.17828 -72.94462 15449 ft 457 kts 130°
2026-05-07 12:40 40.16099 -72.91018 15807 ft 462 kts 130°
2026-05-07 12:40 40.14323 -72.87480 16247 ft 464 kts 130°
2026-05-07 12:40 40.12563 -72.83972 16660 ft 466 kts 131°
2026-05-07 12:40 40.10784 -72.80429 17060 ft 469 kts 130°
2026-05-07 12:41 40.09066 -72.76766 17420 ft 474 kts 128°
2026-05-07 12:41 40.07397 -72.73092 17808 ft 476 kts 129°
2026-05-07 12:41 40.05707 -72.69345 18118 ft 481 kts 129°
2026-05-07 12:41 40.04020 -72.65606 18493 ft 483 kts 128°
2026-05-07 12:42 40.02292 -72.61784 18877 ft 485 kts 129°
2026-05-07 12:42 40.00595 -72.58048 19172 ft 488 kts 129°
2026-05-07 12:42 39.98852 -72.54213 19444 ft 493 kts 128°
2026-05-07 12:42 39.97089 -72.50337 19747 ft 496 kts 128°
2026-05-07 12:43 39.95348 -72.46454 20060 ft 500 kts 128°
2026-05-07 12:43 39.93619 -72.42520 20389 ft 503 kts 127°
2026-05-07 12:43 39.91886 -72.38566 20679 ft 506 kts 127°
2026-05-07 12:43 39.90129 -72.34556 20981 ft 509 kts 128°
2026-05-07 12:44 39.88370 -72.30554 21262 ft 511 kts 128°
2026-05-07 12:44 39.86615 -72.26569 21570 ft 513 kts 128°
2026-05-07 12:44 39.84829 -72.22522 21858 ft 515 kts 128°
2026-05-07 12:44 39.83035 -72.18465 22117 ft 518 kts 128°
2026-05-07 12:45 39.81225 -72.14382 22385 ft 521 kts 128°
2026-05-07 12:45 39.79434 -72.10342 22749 ft 520 kts 128°
2026-05-07 12:45 39.77622 -72.06256 23141 ft 519 kts 128°
2026-05-07 12:45 39.75838 -72.02236 23465 ft 520 kts 128°
2026-05-07 12:46 39.74031 -71.98193 23759 ft 520 kts 128°
2026-05-07 12:46 39.72159 -71.94124 24100 ft 519 kts 129°
2026-05-07 12:46 39.70291 -71.90123 24412 ft 519 kts 129°
2026-05-07 12:46 39.68426 -71.86140 24638 ft 522 kts 129°
2026-05-07 12:47 39.66535 -71.82111 24911 ft 523 kts 129°
2026-05-07 12:47 39.64648 -71.78078 25232 ft 523 kts 129°
2026-05-07 12:47 39.62778 -71.74071 25583 ft 522 kts 129°
2026-05-07 12:47 39.60894 -71.70042 25906 ft 522 kts 129°
2026-05-07 12:48 39.59017 -71.66032 26159 ft 523 kts 129°
2026-05-07 12:48 39.57129 -71.62007 26412 ft 524 kts 129°
2026-05-07 12:48 39.55236 -71.57976 26668 ft 525 kts 129°
2026-05-07 12:48 39.53341 -71.53943 26965 ft 525 kts 129°
2026-05-07 12:49 39.51452 -71.49931 27259 ft 525 kts 129°
2026-05-07 12:49 39.49554 -71.45892 27517 ft 525 kts 129°
2026-05-07 12:49 39.47654 -71.41866 27805 ft 525 kts 130°
2026-05-07 12:49 39.45760 -71.37856 28054 ft 526 kts 130°
2026-05-07 12:50 39.44065 -71.33591 28265 ft 541 kts 116°
2026-05-07 12:50 39.43285 -71.28812 28415 ft 555 kts 97°
2026-05-07 12:50 39.43601 -71.23797 28632 ft 559 kts 78°
2026-05-07 12:50 39.44479 -71.18904 28896 ft 558 kts 75°
2026-05-07 12:51 39.45435 -71.14069 29061 ft 560 kts 75°
2026-05-07 12:51 39.46387 -71.09211 29191 ft 563 kts 76°
2026-05-07 12:51 39.47311 -71.04279 29353 ft 564 kts 76°
2026-05-07 12:51 39.48193 -70.99354 29541 ft 565 kts 76°
2026-05-07 12:52 39.49051 -70.94418 29730 ft 566 kts 77°
2026-05-07 12:52 39.49911 -70.89428 29906 ft 567 kts 77°
2026-05-07 12:52 39.50763 -70.84441 30090 ft 568 kts 77°
2026-05-07 12:52 39.51597 -70.79503 30260 ft 568 kts 77°
2026-05-07 12:53 39.52465 -70.74362 30453 ft 569 kts 77°
2026-05-07 12:53 39.53311 -70.69373 30635 ft 570 kts 77°
2026-05-07 12:53 39.54147 -70.64397 30814 ft 571 kts 76°
2026-05-07 12:53 39.54993 -70.59353 30873 ft 573 kts 77°
2026-05-07 12:54 39.56668 -70.49339 30885 ft 572 kts 77°
2026-05-07 12:54 39.58346 -70.39255 30888 ft 571 kts 77°
2026-05-07 12:55 39.59994 -70.29275 30890 ft 571 kts 78°
2026-05-07 12:55 39.61650 -70.19233 30895 ft 571 kts 78°
2026-05-07 12:56 39.63288 -70.09207 30894 ft 569 kts 78°
2026-05-07 12:56 39.64923 -69.99145 30893 ft 570 kts 78°
2026-05-07 12:57 39.66546 -69.89132 30885 ft 569 kts 78°
2026-05-07 12:57 39.68150 -69.79128 30882 ft 568 kts 78°
2026-05-07 12:58 39.69749 -69.69120 30880 ft 568 kts 78°
2026-05-07 12:58 39.71335 -69.59145 30873 ft 569 kts 78°
2026-05-07 12:59 39.72923 -69.49056 30874 ft 569 kts 78°
2026-05-07 12:59 39.74493 -69.39060 30870 ft 568 kts 78°
2026-05-07 13:00 39.76068 -69.28991 30867 ft 570 kts 79°
2026-05-07 13:00 39.77629 -69.18928 30867 ft 569 kts 78°
2026-05-07 13:01 39.79173 -69.08923 30867 ft 570 kts 79°
2026-05-07 13:01 39.80716 -68.98851 30864 ft 569 kts 78°
2026-05-07 13:02 39.82243 -68.88814 30862 ft 568 kts 78°
2026-05-07 13:02 39.83767 -68.78753 30862 ft 569 kts 78°
2026-05-07 13:03 39.85203 -68.69219 30858 ft 569 kts 78°
2026-05-07 13:03 39.86709 -68.59166 30859 ft 569 kts 78°
2026-05-07 13:04 39.88213 -68.49055 30860 ft 568 kts 78°
2026-05-07 13:04 39.89702 -68.38955 30861 ft 569 kts 78°
2026-05-07 13:05 39.91187 -68.28858 30860 ft 570 kts 79°
2026-05-07 13:05 39.92656 -68.18789 30868 ft 569 kts 78°
2026-05-07 13:06 39.94135 -68.08687 30871 ft 568 kts 77°
2026-05-07 13:06 39.95793 -67.98650 30879 ft 568 kts 75°
2026-05-07 13:07 39.97469 -67.88653 30880 ft 567 kts 76°
2026-05-07 13:07 39.99123 -67.78595 30887 ft 567 kts 76°
2026-05-07 13:08 40.00746 -67.68636 30881 ft 566 kts 76°
2026-05-07 13:08 40.02365 -67.58615 30883 ft 564 kts 76°
2026-05-07 13:09 40.03973 -67.48618 30890 ft 564 kts 77°
2026-05-07 13:09 40.05562 -67.38640 30890 ft 562 kts 77°
2026-05-07 13:10 40.07138 -67.28730 30880 ft 561 kts 77°
2026-05-07 13:10 40.08712 -67.18788 30904 ft 560 kts 78°
2026-05-07 13:11 40.10265 -67.08883 30900 ft 559 kts 77°
2026-05-07 13:11 40.12070 -66.99080 30896 ft 555 kts 70°
2026-05-07 13:12 40.14700 -66.89682 30898 ft 551 kts 65°
2026-05-07 13:12 40.17594 -66.80409 30893 ft 552 kts 64°
2026-05-07 13:13 40.20467 -66.71136 30886 ft 553 kts 65°
2026-05-07 13:13 40.23310 -66.61813 30899 ft 552 kts 64°
2026-05-07 13:14 40.26115 -66.52547 30894 ft 552 kts 64°
2026-05-07 13:14 40.28928 -66.43225 30896 ft 552 kts 65°
2026-05-07 13:15 40.31735 -66.33905 30894 ft 552 kts 66°
2026-05-07 13:15 40.34536 -66.24541 30899 ft 552 kts 66°
2026-05-07 13:16 40.37313 -66.15223 30904 ft 552 kts 65°
2026-05-07 13:16 40.40100 -66.05858 30899 ft 551 kts 66°
2026-05-07 13:17 40.42860 -65.96556 30906 ft 550 kts 66°
2026-05-07 13:17 40.45605 -65.87260 30908 ft 550 kts 65°
2026-05-07 13:18 40.48356 -65.77941 30904 ft 550 kts 66°
2026-05-07 13:18 40.51110 -65.68549 30903 ft 550 kts 66°
2026-05-07 13:19 40.53833 -65.59216 30906 ft 549 kts 65°
2026-05-07 13:19 40.56555 -65.49878 30905 ft 549 kts 66°
2026-05-07 13:20 40.59285 -65.40466 30908 ft 550 kts 65°
2026-05-07 13:20 40.61975 -65.31158 30905 ft 548 kts 66°
2026-05-07 13:21 40.64669 -65.21820 30907 ft 547 kts 66°
2026-05-07 13:21 40.67350 -65.12498 30911 ft 547 kts 66°
2026-05-07 13:22 40.70036 -65.03090 30906 ft 547 kts 66°
2026-05-07 13:22 40.72696 -64.93753 30912 ft 548 kts 66°
2026-05-07 13:23 40.75349 -64.84411 30914 ft 548 kts 67°
2026-05-07 13:23 40.78003 -64.75030 30920 ft 546 kts 67°
2026-05-07 13:24 40.80650 -64.65641 30928 ft 547 kts 66°
2026-05-07 13:24 40.83287 -64.56250 30930 ft 548 kts 66°
2026-05-07 13:25 40.85922 -64.46832 30926 ft 548 kts 66°
2026-05-07 13:25 40.88537 -64.37452 30932 ft 547 kts 66°
2026-05-07 13:26 40.91163 -64.28029 30929 ft 549 kts 67°
2026-05-07 13:26 40.93767 -64.18612 30940 ft 547 kts 66°
2026-05-07 13:27 40.96361 -64.09209 30944 ft 546 kts 67°
2026-05-07 13:27 40.98944 -63.99781 30943 ft 547 kts 67°
2026-05-07 13:28 41.01527 -63.90352 30945 ft 545 kts 67°
2026-05-07 13:28 41.04095 -63.80940 30944 ft 547 kts 68°
2026-05-07 13:29 41.06643 -63.71531 30954 ft 545 kts 67°
2026-05-07 13:29 41.09195 -63.62101 30954 ft 543 kts 67°
2026-05-07 13:30 41.11714 -63.52761 30949 ft 541 kts 67°
2026-05-07 13:30 41.14245 -63.43349 30947 ft 542 kts 67°
2026-05-07 13:31 41.16754 -63.33966 30946 ft 541 kts 68°
2026-05-07 13:31 41.19239 -63.24632 30949 ft 539 kts 68°
2026-05-07 13:32 41.21714 -63.15319 30956 ft 537 kts 68°
2026-05-07 13:32 41.24194 -63.05962 30954 ft 538 kts 68°
2026-05-07 13:33 41.26661 -62.96594 30948 ft 536 kts 68°
2026-05-07 13:33 41.29098 -62.87289 30957 ft 537 kts 67°
2026-05-07 13:34 41.32770 -62.73249 30970 ft 536 kts 68°
2026-05-07 13:35 41.35189 -62.63931 30960 ft 536 kts 68°
2026-05-07 13:35 41.37622 -62.54539 30966 ft 536 kts 68°
2026-05-07 13:36 41.40035 -62.45186 30969 ft 537 kts 68°
2026-05-07 13:36 41.42443 -62.35795 30973 ft 536 kts 68°
2026-05-07 13:37 41.44836 -62.26461 30983 ft 535 kts 68°
2026-05-07 13:37 41.47225 -62.17094 30986 ft 535 kts 69°
2026-05-07 13:38 41.49606 -62.07702 30981 ft 534 kts 68°
2026-05-07 13:38 41.51972 -61.98351 30992 ft 536 kts 68°
2026-05-07 13:39 41.54332 -61.88985 30994 ft 533 kts 68°
2026-05-07 13:39 41.56685 -61.79612 30999 ft 532 kts 68°
2026-05-07 13:40 41.59026 -61.70260 30998 ft 533 kts 68°
2026-05-07 13:40 41.61348 -61.60921 31004 ft 532 kts 68°
2026-05-07 13:41 41.63673 -61.51563 31000 ft 532 kts 68°
2026-05-07 13:41 41.65972 -61.42255 31007 ft 530 kts 69°
2026-05-07 13:42 41.68266 -61.32941 30994 ft 531 kts 69°
2026-05-07 13:42 41.70563 -61.23559 31007 ft 529 kts 69°
2026-05-07 13:43 41.72831 -61.14275 31003 ft 528 kts 69°
2026-05-07 13:43 41.75106 -61.04907 31012 ft 527 kts 69°
2026-05-07 13:44 41.77358 -60.95617 31003 ft 528 kts 70°
2026-05-07 13:44 41.79594 -60.86335 31012 ft 526 kts 70°
2026-05-07 13:45 41.81826 -60.77036 31008 ft 526 kts 69°
2026-05-07 13:45 41.84055 -60.67723 31008 ft 525 kts 69°
2026-05-07 13:46 41.86262 -60.58452 31007 ft 524 kts 69°
2026-05-07 13:46 41.88468 -60.49162 31006 ft 525 kts 69°
2026-05-07 13:47 41.90674 -60.39825 31008 ft 524 kts 69°
2026-05-07 13:47 41.92864 -60.30527 31008 ft 524 kts 70°
2026-05-07 13:48 41.95032 -60.21272 31015 ft 523 kts 70°
2026-05-07 13:48 41.97205 -60.11974 31016 ft 522 kts 70°
2026-05-07 13:49 41.99349 -60.02700 31010 ft 523 kts 71°
2026-05-07 13:49 42.01008 -59.93253 31021 ft 522 kts 76°
2026-05-07 13:50 42.02377 -59.83673 31024 ft 522 kts 77°
2026-05-07 13:50 42.03730 -59.74097 31024 ft 521 kts 77°
2026-05-07 13:51 42.05083 -59.64547 31023 ft 520 kts 77°
2026-05-07 13:51 42.06428 -59.55056 31024 ft 519 kts 77°
2026-05-07 13:52 42.07764 -59.45559 31025 ft 520 kts 77°
2026-05-07 13:52 42.09103 -59.36009 31025 ft 518 kts 77°
2026-05-07 13:53 42.10424 -59.26520 31020 ft 517 kts 78°
2026-05-07 13:53 42.11731 -59.17075 31026 ft 518 kts 78°
2026-05-07 13:54 42.13038 -59.07565 31026 ft 517 kts 77°
2026-05-07 13:54 42.14329 -58.98101 31024 ft 516 kts 78°
2026-05-07 13:55 42.15614 -58.88638 31029 ft 515 kts 77°
2026-05-07 13:55 42.16895 -58.79139 31030 ft 515 kts 77°
2026-05-07 13:56 42.18160 -58.69684 31031 ft 514 kts 77°
2026-05-07 13:56 42.19413 -58.60267 31031 ft 514 kts 77°
2026-05-07 13:57 42.20665 -58.50802 31035 ft 513 kts 77°
2026-05-07 13:57 42.21904 -58.41356 31038 ft 513 kts 77°
2026-05-07 13:58 42.23140 -58.31905 31033 ft 514 kts 77°
2026-05-07 13:58 42.24361 -58.22473 31039 ft 512 kts 77°
2026-05-07 13:59 42.25569 -58.13081 31043 ft 512 kts 77°
2026-05-07 13:59 42.26775 -58.03645 31049 ft 512 kts 77°
2026-05-07 14:00 42.27977 -57.94210 31046 ft 511 kts 77°
2026-05-07 14:00 42.29163 -57.84789 31047 ft 510 kts 77°
2026-05-07 14:01 42.30345 -57.75378 31047 ft 510 kts 77°
2026-05-07 14:01 42.31513 -57.65971 31048 ft 510 kts 77°
2026-05-07 14:02 42.32673 -57.56590 31048 ft 509 kts 77°
2026-05-07 14:02 42.33830 -57.47152 31050 ft 509 kts 78°
2026-05-07 14:03 42.34974 -57.37754 31047 ft 507 kts 77°
2026-05-07 14:03 42.36103 -57.28428 31046 ft 506 kts 78°
2026-05-07 14:04 42.37226 -57.19080 31049 ft 506 kts 78°
2026-05-07 14:04 42.38348 -57.09661 31047 ft 505 kts 78°
2026-05-07 14:05 42.39449 -57.00368 31047 ft 504 kts 78°
2026-05-07 14:05 42.40550 -56.90995 31049 ft 504 kts 78°
2026-05-07 14:06 42.41637 -56.81681 31053 ft 506 kts 78°
2026-05-07 14:06 42.42723 -56.72302 31052 ft 504 kts 78°
2026-05-07 14:07 42.43798 -56.62961 31052 ft 505 kts 78°
2026-05-07 14:07 42.44865 -56.53592 31053 ft 503 kts 78°
2026-05-07 14:08 42.45918 -56.44295 31055 ft 502 kts 78°
2026-05-07 14:08 42.46969 -56.34968 31056 ft 502 kts 79°
2026-05-07 14:09 42.48010 -56.25624 31056 ft 501 kts 79°
2026-05-07 14:09 42.49034 -56.16357 31058 ft 501 kts 79°
2026-05-07 14:10 42.50058 -56.07045 31062 ft 500 kts 79°
2026-05-07 14:10 42.51067 -55.97788 31059 ft 500 kts 79°
2026-05-07 14:11 42.52074 -55.88496 31064 ft 499 kts 79°
2026-05-07 14:11 42.53073 -55.79189 31070 ft 499 kts 79°
2026-05-07 14:12 42.54053 -55.69966 31073 ft 497 kts 79°
2026-05-07 14:12 42.55038 -55.60656 31077 ft 497 kts 79°
2026-05-07 14:13 42.56008 -55.51407 31076 ft 496 kts 79°
2026-05-07 14:13 42.56968 -55.42174 31080 ft 494 kts 79°
2026-05-07 14:14 42.57914 -55.33006 31078 ft 494 kts 79°
2026-05-07 14:14 42.58854 -55.23835 31093 ft 493 kts 80°
2026-05-07 14:15 42.59782 -55.14673 31087 ft 492 kts 79°
2026-05-07 14:15 42.60710 -55.05471 31090 ft 491 kts 79°
2026-05-07 14:16 42.61621 -54.96329 31090 ft 490 kts 79°
2026-05-07 14:16 42.62527 -54.87211 31102 ft 490 kts 80°
2026-05-07 14:17 42.63426 -54.78070 31103 ft 489 kts 80°
2026-05-07 14:17 42.64311 -54.68983 31105 ft 490 kts 80°
2026-05-07 14:18 42.65192 -54.59839 31108 ft 490 kts 80°
2026-05-07 14:18 42.66073 -54.50645 31105 ft 490 kts 81°
2026-05-07 14:19 42.66944 -54.41470 31104 ft 491 kts 81°
2026-05-07 14:19 42.67806 -54.32323 31106 ft 492 kts 81°
2026-05-07 14:20 42.68662 -54.23150 31109 ft 492 kts 82°
2026-05-07 14:20 42.69516 -54.13919 31109 ft 492 kts 82°
2026-05-07 14:21 42.70354 -54.04740 31109 ft 491 kts 82°
2026-05-07 14:21 42.71188 -53.95562 31114 ft 491 kts 82°
2026-05-07 14:22 42.72010 -53.86414 31116 ft 491 kts 82°
2026-05-07 14:22 42.72832 -53.77178 31118 ft 491 kts 82°
2026-05-07 14:23 42.73640 -53.68045 31119 ft 491 kts 82°
2026-05-07 14:23 42.74446 -53.58836 31129 ft 492 kts 82°
2026-05-07 14:24 42.75245 -53.49614 31138 ft 492 kts 82°
2026-05-07 14:24 42.76034 -53.40412 31138 ft 491 kts 82°
2026-05-07 14:25 42.76815 -53.31249 31146 ft 492 kts 83°
2026-05-07 14:25 42.77594 -53.22000 31141 ft 490 kts 83°
2026-05-07 14:26 42.78359 -53.12827 31148 ft 490 kts 83°
2026-05-07 14:26 42.79116 -53.03652 31150 ft 490 kts 83°
2026-05-07 14:27 42.79866 -52.94450 31154 ft 491 kts 83°
2026-05-07 14:27 42.80615 -52.85223 31158 ft 491 kts 83°
2026-05-07 14:28 42.81354 -52.75990 31162 ft 491 kts 83°
2026-05-07 14:28 42.82083 -52.66801 31160 ft 489 kts 84°
2026-05-07 14:29 42.82802 -52.57651 31163 ft 489 kts 83°
2026-05-07 14:29 42.83518 -52.48427 31167 ft 490 kts 83°
2026-05-07 14:30 42.84223 -52.39237 31171 ft 489 kts 84°
2026-05-07 14:30 42.84921 -52.30051 31174 ft 489 kts 84°
2026-05-07 14:31 42.85608 -52.20909 31182 ft 489 kts 84°
2026-05-07 14:31 42.86295 -52.11686 31191 ft 489 kts 84°
2026-05-07 14:32 42.86973 -52.02487 31196 ft 489 kts 84°
2026-05-07 14:32 42.87639 -51.93328 31201 ft 489 kts 84°
2026-05-07 14:33 42.88302 -51.84135 31208 ft 490 kts 84°
2026-05-07 14:33 42.88958 -51.74914 31209 ft 490 kts 84°
2026-05-07 14:34 42.89607 -51.65672 31216 ft 491 kts 84°
2026-05-07 14:34 42.90250 -51.56423 31213 ft 491 kts 84°
2026-05-07 14:35 42.90888 -51.47152 31218 ft 492 kts 85°
2026-05-07 14:35 42.91518 -51.37861 31219 ft 494 kts 85°
2026-05-07 14:36 42.92137 -51.28630 31220 ft 494 kts 85°
2026-05-07 14:36 42.92757 -51.19263 31224 ft 494 kts 86°
2026-05-07 14:37 42.93364 -51.09994 31225 ft 496 kts 85°
2026-05-07 14:37 42.94268 -50.95935 31226 ft 497 kts 86°
2026-05-07 14:38 42.94863 -50.86556 31232 ft 496 kts 86°
2026-05-07 14:38 42.95448 -50.77191 31237 ft 496 kts 86°
2026-05-07 14:39 42.96023 -50.67840 31235 ft 496 kts 86°
2026-05-07 14:39 42.96593 -50.58484 31245 ft 497 kts 86°
2026-05-07 14:40 42.97154 -50.49142 31248 ft 496 kts 86°
2026-05-07 14:40 42.97711 -50.39755 31250 ft 497 kts 86°
2026-05-07 14:41 42.98259 -50.30387 31255 ft 496 kts 86°
2026-05-07 14:41 42.98798 -50.21038 31319 ft 499 kts 86°
2026-05-07 14:42 42.99071 -50.16267 31573 ft 498 kts 86°
2026-05-07 14:42 42.99343 -50.11473 31853 ft 497 kts 86°
2026-05-07 14:42 42.99604 -50.06823 32070 ft 497 kts 86°
2026-05-07 14:42 42.99861 -50.02065 32290 ft 496 kts 88°
2026-05-07 14:43 42.99973 -49.97369 32502 ft 496 kts 91°
2026-05-07 14:43 42.99958 -49.92685 32715 ft 495 kts 91°
2026-05-07 14:43 42.99918 -49.88002 32936 ft 494 kts 92°
2026-05-07 14:43 42.99873 -49.83343 33138 ft 494 kts 91°
2026-05-07 14:44 42.99828 -49.78621 33270 ft 495 kts 91°
2026-05-07 14:44 42.99783 -49.73931 33273 ft 495 kts 91°
2026-05-07 14:44 42.99693 -49.64543 33279 ft 496 kts 91°
2026-05-07 14:45 42.99600 -49.55121 33278 ft 496 kts 91°
2026-05-07 14:45 42.99501 -49.45729 33290 ft 497 kts 91°
2026-05-07 14:46 42.99395 -49.36297 33291 ft 497 kts 91°
2026-05-07 14:46 42.99282 -49.26921 33300 ft 496 kts 92°
2026-05-07 14:47 42.99159 -49.17345 33303 ft 497 kts 92°
2026-05-07 14:47 42.99026 -49.07909 33305 ft 497 kts 92°
2026-05-07 14:48 42.98887 -48.98416 33310 ft 497 kts 91°
2026-05-07 14:48 42.98742 -48.89017 33314 ft 498 kts 91°
2026-05-07 14:49 42.98588 -48.79607 33311 ft 498 kts 91°
2026-05-07 14:49 42.98429 -48.70192 33316 ft 498 kts 91°
2026-05-07 14:50 42.98261 -48.60764 33323 ft 499 kts 91°
2026-05-07 14:50 42.98082 -48.51284 33317 ft 500 kts 91°
2026-05-07 14:51 42.97896 -48.41797 33322 ft 500 kts 91°
2026-05-07 14:51 42.97704 -48.32355 33323 ft 500 kts 92°
2026-05-07 14:52 42.97501 -48.22819 33325 ft 500 kts 92°
2026-05-07 14:52 42.97290 -48.13339 33326 ft 501 kts 92°
2026-05-07 14:53 42.97073 -48.03858 33329 ft 501 kts 92°
2026-05-07 14:53 42.96849 -47.94353 33336 ft 502 kts 92°
2026-05-07 14:54 42.96616 -47.84826 33345 ft 502 kts 92°
2026-05-07 14:54 42.96372 -47.75278 33356 ft 503 kts 92°
2026-05-07 14:55 42.96122 -47.65826 33356 ft 503 kts 92°
2026-05-07 14:55 42.95865 -47.56316 33357 ft 502 kts 92°
2026-05-07 14:56 42.95600 -47.46803 33362 ft 503 kts 92°
2026-05-07 14:56 42.95329 -47.37273 33356 ft 503 kts 92°
2026-05-07 14:57 42.95047 -47.27742 33353 ft 503 kts 92°
2026-05-07 14:57 42.94755 -47.18155 33353 ft 503 kts 92°
2026-05-07 14:58 42.94457 -47.08578 33346 ft 504 kts 92°
2026-05-07 14:58 42.94151 -46.99033 33350 ft 505 kts 92°
2026-05-07 14:59 42.93833 -46.89419 33352 ft 506 kts 92°
2026-05-07 14:59 42.93510 -46.79807 33353 ft 507 kts 92°
2026-05-07 15:00 42.93178 -46.70203 33356 ft 507 kts 92°
2026-05-07 15:00 42.92838 -46.60575 33357 ft 507 kts 92°
2026-05-07 15:01 42.92494 -46.51039 33362 ft 507 kts 92°
2026-05-07 15:01 42.92139 -46.41472 33364 ft 507 kts 92°
2026-05-07 15:02 42.91774 -46.31836 33367 ft 507 kts 92°
2026-05-07 15:02 42.91402 -46.22253 33370 ft 508 kts 93°
2026-05-07 15:03 42.91020 -46.12626 33378 ft 509 kts 92°
2026-05-07 15:03 42.90628 -46.02916 33386 ft 510 kts 92°
2026-05-07 15:04 42.90231 -45.93279 33392 ft 510 kts 92°
2026-05-07 15:04 42.89822 -45.83579 33387 ft 511 kts 92°
2026-05-07 15:05 42.89408 -45.73960 33391 ft 510 kts 92°
2026-05-07 15:05 42.88987 -45.64315 33394 ft 511 kts 92°
2026-05-07 15:06 42.88555 -45.54664 33392 ft 512 kts 92°
2026-05-07 15:06 42.88107 -45.44906 33389 ft 511 kts 92°
2026-05-07 15:07 42.87656 -45.35174 33381 ft 512 kts 92°
2026-05-07 15:07 42.87201 -45.25532 33375 ft 512 kts 92°
2026-05-07 15:08 42.86735 -45.15836 33373 ft 512 kts 92°
2026-05-07 15:08 42.86260 -45.06149 33376 ft 512 kts 92°
2026-05-07 15:09 42.85777 -44.96447 33373 ft 512 kts 92°
2026-05-07 15:09 42.85288 -44.86774 33372 ft 513 kts 92°
2026-05-07 15:10 42.84792 -44.77092 33381 ft 513 kts 92°
2026-05-07 15:10 42.84285 -44.67448 33370 ft 514 kts 92°
2026-05-07 15:11 42.83767 -44.57726 33369 ft 514 kts 92°
2026-05-07 15:11 42.83242 -44.47975 33377 ft 514 kts 92°
2026-05-07 15:12 42.82714 -44.38334 33392 ft 514 kts 92°
2026-05-07 15:12 42.82173 -44.28634 33393 ft 513 kts 92°
2026-05-07 15:13 42.81627 -44.18982 33393 ft 514 kts 92°
2026-05-07 15:13 42.81071 -44.09297 33398 ft 513 kts 92°
2026-05-07 15:14 42.80509 -43.99685 33391 ft 513 kts 92°
2026-05-07 15:14 42.79942 -43.90052 33394 ft 513 kts 92°
2026-05-07 15:15 42.79363 -43.80388 33395 ft 513 kts 92°
2026-05-07 15:15 42.78773 -43.70716 33390 ft 513 kts 92°
2026-05-07 15:16 42.78178 -43.61111 33385 ft 514 kts 92°
2026-05-07 15:16 42.77575 -43.51455 33377 ft 514 kts 92°
2026-05-07 15:17 42.76965 -43.41797 33373 ft 514 kts 92°
2026-05-07 15:17 42.76339 -43.32074 33375 ft 515 kts 93°
2026-05-07 15:18 42.75712 -43.22425 33373 ft 515 kts 93°
2026-05-07 15:18 42.75071 -43.12725 33375 ft 515 kts 93°
2026-05-07 15:19 42.74424 -43.03066 33371 ft 515 kts 92°
2026-05-07 15:19 42.73770 -42.93372 33367 ft 515 kts 93°
2026-05-07 15:20 42.73109 -42.83709 33362 ft 516 kts 93°
2026-05-07 15:20 42.72435 -42.74058 33372 ft 515 kts 92°
2026-05-07 15:21 42.71756 -42.64373 33365 ft 516 kts 92°
2026-05-07 15:21 42.71068 -42.54683 33365 ft 516 kts 92°
2026-05-07 15:22 42.70374 -42.45041 33360 ft 516 kts 92°
2026-05-07 15:22 42.69670 -42.35372 33362 ft 517 kts 92°
2026-05-07 15:23 42.68958 -42.25688 33355 ft 517 kts 93°
2026-05-07 15:23 42.68233 -42.15956 33355 ft 518 kts 92°
2026-05-07 15:24 42.67503 -42.06283 33354 ft 518 kts 93°
2026-05-07 15:24 42.66762 -41.96561 33349 ft 517 kts 93°
2026-05-07 15:25 42.66016 -41.86891 33344 ft 517 kts 93°
2026-05-07 15:25 42.65259 -41.77184 33348 ft 517 kts 92°
2026-05-07 15:26 42.64491 -41.67473 33346 ft 518 kts 92°
2026-05-07 15:26 42.63724 -41.57805 33345 ft 518 kts 93°
2026-05-07 15:27 42.62945 -41.48127 33342 ft 520 kts 92°
2026-05-07 15:27 42.62147 -41.38351 33341 ft 520 kts 92°
2026-05-07 15:28 42.61351 -41.28649 33337 ft 519 kts 94°
2026-05-07 15:28 42.60544 -41.18959 33335 ft 520 kts 93°
2026-05-07 15:29 42.59726 -41.09217 33334 ft 521 kts 94°
2026-05-07 15:29 42.58897 -40.99492 33333 ft 521 kts 93°
2026-05-07 15:30 42.58064 -40.89769 33345 ft 520 kts 94°
2026-05-07 15:30 42.57223 -40.80018 33345 ft 520 kts 93°
2026-05-07 15:31 42.56379 -40.70377 33348 ft 519 kts 93°
2026-05-07 15:31 42.55519 -40.60635 33348 ft 519 kts 93°
2026-05-07 15:32 42.54655 -40.51032 33343 ft 517 kts 92°
2026-05-07 15:32 42.53793 -40.41406 33339 ft 516 kts 92°
2026-05-07 15:33 42.52919 -40.31776 33343 ft 516 kts 94°
2026-05-07 15:33 42.52039 -40.22196 33335 ft 514 kts 94°
2026-05-07 15:34 42.51154 -40.12569 33337 ft 513 kts 94°
2026-05-07 15:34 42.50260 -40.03000 33337 ft 514 kts 93°
2026-05-07 15:35 42.49311 -39.93435 33325 ft 511 kts 94°
2026-05-07 15:35 42.48300 -39.83923 33325 ft 513 kts 94°
2026-05-07 15:36 42.47279 -39.74358 33327 ft 512 kts 94°
2026-05-07 15:36 42.46269 -39.64913 33323 ft 508 kts 94°
2026-05-07 15:37 42.45251 -39.55447 33325 ft 507 kts 94°
2026-05-07 15:37 42.44224 -39.45942 33312 ft 508 kts 94°
2026-05-07 15:38 42.43195 -39.36511 33322 ft 507 kts 94°
2026-05-07 15:38 42.42169 -39.27179 33310 ft 505 kts 95°
2026-05-07 15:39 42.41137 -39.17840 33303 ft 505 kts 95°
2026-05-07 15:39 42.40087 -39.08425 33327 ft 504 kts 95°
2026-05-07 15:40 42.39040 -38.99142 33321 ft 503 kts 95°
2026-05-07 15:40 42.37984 -38.89835 33294 ft 503 kts 95°
2026-05-07 15:41 42.36919 -38.80486 33284 ft 503 kts 95°
2026-05-07 15:41 42.35855 -38.71191 33301 ft 503 kts 95°
2026-05-07 15:42 42.34781 -38.61928 33312 ft 501 kts 95°
2026-05-07 15:42 42.33697 -38.52658 33297 ft 498 kts 95°
2026-05-07 15:43 42.32612 -38.43399 33286 ft 499 kts 95°
2026-05-07 15:43 42.31514 -38.34132 33298 ft 500 kts 95°
2026-05-07 15:44 42.30414 -38.24913 33287 ft 499 kts 95°
2026-05-07 15:44 42.29304 -38.15659 33299 ft 498 kts 95°
2026-05-07 15:45 42.28192 -38.06482 33299 ft 497 kts 95°
2026-05-07 15:45 42.27076 -37.97289 33285 ft 496 kts 95°
2026-05-07 15:46 42.25394 -37.83599 33281 ft 495 kts 95°
2026-05-07 15:47 42.24266 -37.74493 33277 ft 496 kts 95°
2026-05-07 15:47 42.23131 -37.65372 33272 ft 495 kts 95°
2026-05-07 15:48 42.21986 -37.56251 33263 ft 494 kts 95°
2026-05-07 15:48 42.20831 -37.47108 33265 ft 495 kts 95°
2026-05-07 15:49 42.19669 -37.37982 33256 ft 495 kts 94°
2026-05-07 15:49 42.18500 -37.28867 33261 ft 494 kts 95°
2026-05-07 15:50 42.17341 -37.19832 33257 ft 495 kts 95°
2026-05-07 15:50 42.16153 -37.10690 33254 ft 495 kts 95°
2026-05-07 15:51 42.14957 -37.01557 33247 ft 494 kts 95°
2026-05-07 15:51 42.13771 -36.92522 33251 ft 493 kts 95°
2026-05-07 15:52 42.12567 -36.83408 33250 ft 493 kts 95°
2026-05-07 15:52 42.11366 -36.74391 33248 ft 493 kts 95°
2026-05-07 15:53 42.10149 -36.65299 33251 ft 492 kts 95°
2026-05-07 15:53 42.08925 -36.56200 33242 ft 493 kts 95°
2026-05-07 15:54 42.07698 -36.47137 33246 ft 494 kts 95°
2026-05-07 15:54 42.06466 -36.38110 33239 ft 493 kts 94°
2026-05-07 15:55 42.05222 -36.29044 33235 ft 493 kts 95°
2026-05-07 15:55 42.03974 -36.20003 33236 ft 494 kts 95°
2026-05-07 15:56 42.02711 -36.10913 33233 ft 494 kts 95°
2026-05-07 15:56 42.01450 -36.01905 33231 ft 493 kts 95°
2026-05-07 15:57 42.00174 -35.92820 33233 ft 493 kts 95°
2026-05-07 15:57 41.98901 -35.83818 33237 ft 493 kts 95°
2026-05-07 15:58 41.97619 -35.74812 33229 ft 492 kts 95°
2026-05-07 15:58 41.96333 -35.65812 33224 ft 492 kts 94°
2026-05-07 15:59 41.95042 -35.56844 33225 ft 493 kts 94°
2026-05-07 15:59 41.93738 -35.47841 33217 ft 492 kts 94°
2026-05-07 16:00 41.92431 -35.38864 33202 ft 493 kts 94°
2026-05-07 16:00 41.91108 -35.29819 33205 ft 493 kts 95°
2026-05-07 16:01 41.89779 -35.20805 33208 ft 493 kts 95°
2026-05-07 16:01 41.88444 -35.11792 33205 ft 495 kts 95°
2026-05-07 16:02 41.87101 -35.02787 33197 ft 493 kts 95°
2026-05-07 16:02 41.85760 -34.93838 33197 ft 492 kts 95°
2026-05-07 16:03 41.84410 -34.84880 33182 ft 493 kts 95°
2026-05-07 16:03 41.83054 -34.75922 33182 ft 492 kts 95°
2026-05-07 16:04 41.81687 -34.66948 33181 ft 492 kts 95°
2026-05-07 16:04 41.80319 -34.58015 33172 ft 492 kts 95°
2026-05-07 16:05 41.78939 -34.49058 33176 ft 493 kts 95°
2026-05-07 16:05 41.77549 -34.40085 33178 ft 492 kts 95°
2026-05-07 16:06 41.76162 -34.31177 33168 ft 493 kts 95°
2026-05-07 16:06 41.74757 -34.22194 33177 ft 493 kts 95°
2026-05-07 16:07 41.73341 -34.13209 33179 ft 493 kts 95°
2026-05-07 16:07 41.71930 -34.04307 33170 ft 492 kts 95°
2026-05-07 16:08 41.70511 -33.95381 33164 ft 492 kts 95°
2026-05-07 16:08 41.69071 -33.86379 33162 ft 493 kts 95°
2026-05-07 16:09 41.67620 -33.77348 33158 ft 493 kts 95°
2026-05-07 16:09 41.66174 -33.68417 33150 ft 493 kts 95°
2026-05-07 16:10 41.64727 -33.59499 33153 ft 494 kts 95°
2026-05-07 16:10 41.63268 -33.50573 33144 ft 493 kts 95°
2026-05-07 16:11 41.61803 -33.41659 33139 ft 494 kts 95°
2026-05-07 16:11 41.60316 -33.32643 33132 ft 494 kts 95°
2026-05-07 16:12 41.58828 -33.23676 33141 ft 494 kts 95°
2026-05-07 16:12 41.57346 -33.14788 33141 ft 493 kts 95°
2026-05-07 16:13 41.55856 -33.05889 33135 ft 493 kts 95°
2026-05-07 16:13 41.54362 -32.97026 33131 ft 493 kts 95°
2026-05-07 16:14 41.52834 -32.87998 33134 ft 493 kts 95°
2026-05-07 16:14 41.51309 -32.79036 33128 ft 494 kts 95°
2026-05-07 16:15 41.49789 -32.70145 33132 ft 495 kts 95°
2026-05-07 16:15 41.48261 -32.61262 33113 ft 495 kts 95°
2026-05-07 16:16 41.46720 -32.52342 33120 ft 497 kts 95°
2026-05-07 16:16 41.45163 -32.43368 33117 ft 496 kts 95°
2026-05-07 16:17 41.43604 -32.34434 33108 ft 497 kts 95°
2026-05-07 16:17 41.42027 -32.25413 33104 ft 499 kts 95°
2026-05-07 16:18 41.40436 -32.16406 33109 ft 498 kts 95°
2026-05-07 16:18 41.38850 -32.07453 33108 ft 498 kts 95°
2026-05-07 16:19 41.37266 -31.98548 33103 ft 498 kts 95°
2026-05-07 16:19 41.35657 -31.89527 33086 ft 501 kts 95°
2026-05-07 16:20 41.34038 -31.80515 33095 ft 500 kts 95°
2026-05-07 16:20 41.32413 -31.71530 33081 ft 500 kts 95°
2026-05-07 16:21 41.30782 -31.62527 33058 ft 499 kts 95°
2026-05-07 16:21 41.29142 -31.53534 33063 ft 498 kts 94°
2026-05-07 16:22 41.27515 -31.44654 33046 ft 496 kts 94°
2026-05-07 16:22 41.25884 -31.35800 33057 ft 493 kts 94°
2026-05-07 16:23 41.24247 -31.26906 33067 ft 495 kts 95°
2026-05-07 16:23 41.22601 -31.18042 33051 ft 493 kts 95°
2026-05-07 16:24 41.20961 -31.09252 33049 ft 493 kts 95°
2026-05-07 16:24 41.19310 -31.00441 33047 ft 492 kts 94°
2026-05-07 16:25 41.17659 -30.91655 33047 ft 493 kts 95°
2026-05-07 16:25 41.15999 -30.82857 33043 ft 492 kts 95°
2026-05-07 16:26 41.14331 -30.74089 33037 ft 491 kts 95°
2026-05-07 16:26 41.12655 -30.65282 33024 ft 492 kts 95°
2026-05-07 16:27 41.10976 -30.56513 33030 ft 491 kts 96°
2026-05-07 16:27 41.09282 -30.47730 33029 ft 490 kts 96°
2026-05-07 16:28 41.07587 -30.38954 33027 ft 489 kts 96°
2026-05-07 16:28 41.05889 -30.30184 33021 ft 489 kts 97°
2026-05-07 16:29 41.04190 -30.21459 33090 ft 491 kts 97°
2026-05-07 16:29 41.03343 -30.17129 33296 ft 490 kts 97°
2026-05-07 16:29 41.02488 -30.12756 33529 ft 488 kts 97°
2026-05-07 16:29 41.01640 -30.08435 33722 ft 487 kts 97°
2026-05-07 16:30 41.00791 -30.04125 33874 ft 487 kts 97°
2026-05-07 16:30 41.00034 -29.99759 34011 ft 484 kts 94°
2026-05-07 16:30 40.99466 -29.95447 34142 ft 482 kts 91°
2026-05-07 16:30 40.98985 -29.90995 34286 ft 481 kts 90°
2026-05-07 16:31 40.98529 -29.86627 34445 ft 481 kts 90°
2026-05-07 16:31 40.98076 -29.82265 34572 ft 480 kts 90°
2026-05-07 16:31 40.97620 -29.77899 34654 ft 481 kts 91°
2026-05-07 16:31 40.97161 -29.73529 34922 ft 482 kts 91°
2026-05-07 16:32 40.96695 -29.69137 34977 ft 482 kts 91°
2026-05-07 16:32 40.95760 -29.60416 34977 ft 481 kts 91°
2026-05-07 16:33 40.94820 -29.51709 34976 ft 481 kts 91°
2026-05-07 16:33 40.93869 -29.42976 34973 ft 481 kts 91°
2026-05-07 16:34 40.92910 -29.34226 34974 ft 481 kts 92°
2026-05-07 16:34 40.91941 -29.25459 34966 ft 481 kts 92°
2026-05-07 16:35 40.90976 -29.16769 34963 ft 480 kts 92°
2026-05-07 16:35 40.89999 -29.08055 34958 ft 480 kts 92°
2026-05-07 16:36 40.89014 -28.99324 34954 ft 481 kts 92°
2026-05-07 16:36 40.88020 -28.90567 34952 ft 481 kts 92°
2026-05-07 16:37 40.87024 -28.81854 34947 ft 480 kts 93°
2026-05-07 16:37 40.86524 -28.77513 34945 ft 481 kts 93°
2026-05-07 16:38 40.85064 -28.64895 34943 ft 480 kts 93°
2026-05-07 16:38 40.84049 -28.56196 34938 ft 480 kts 93°
2026-05-07 16:39 40.83027 -28.47499 34935 ft 479 kts 93°
2026-05-07 16:39 40.81997 -28.38797 34936 ft 479 kts 93°
2026-05-07 16:40 40.80970 -28.30154 34931 ft 480 kts 94°
2026-05-07 16:40 40.79922 -28.21417 34927 ft 480 kts 94°
2026-05-07 16:41 40.78868 -28.12673 34920 ft 481 kts 94°
2026-05-07 16:41 40.77806 -28.03932 34916 ft 480 kts 94°
2026-05-07 16:42 40.76746 -27.95263 34904 ft 480 kts 94°
2026-05-07 16:42 40.75681 -27.86603 34900 ft 480 kts 94°
2026-05-07 16:43 40.74594 -27.77829 34896 ft 479 kts 94°
2026-05-07 16:43 40.73514 -27.69158 34888 ft 479 kts 94°
2026-05-07 16:44 40.72424 -27.60459 34885 ft 480 kts 95°
2026-05-07 16:44 40.71330 -27.51792 34884 ft 479 kts 95°
2026-05-07 16:45 40.70228 -27.43109 34877 ft 479 kts 95°
2026-05-07 16:45 40.69117 -27.34409 34873 ft 479 kts 95°
2026-05-07 16:46 40.68008 -27.25784 34871 ft 479 kts 95°
2026-05-07 16:46 40.66882 -27.17090 34871 ft 478 kts 95°
2026-05-07 16:47 40.65770 -27.08532 34872 ft 478 kts 96°
2026-05-07 16:47 40.64645 -26.99934 34865 ft 478 kts 96°
2026-05-07 16:48 40.63511 -26.91323 34870 ft 478 kts 96°
2026-05-07 16:48 40.62373 -26.82737 34873 ft 478 kts 96°
2026-05-07 16:49 40.61230 -26.74165 34868 ft 478 kts 96°
2026-05-07 16:49 40.60083 -26.65608 34859 ft 477 kts 96°
2026-05-07 16:50 40.58924 -26.57007 34857 ft 477 kts 96°
2026-05-07 16:50 40.57768 -26.48492 34852 ft 477 kts 96°
2026-05-07 16:51 40.56598 -26.39907 34846 ft 476 kts 96°
2026-05-07 16:51 40.55430 -26.31381 34839 ft 477 kts 97°
2026-05-07 16:52 40.54245 -26.22799 34839 ft 477 kts 97°
2026-05-07 16:52 40.53042 -26.14135 34833 ft 477 kts 97°
2026-05-07 16:53 40.51838 -26.05505 34829 ft 477 kts 97°
2026-05-07 16:53 40.50638 -25.96962 34828 ft 476 kts 97°
2026-05-07 16:54 40.49427 -25.88378 34824 ft 476 kts 97°
2026-05-07 16:54 40.48215 -25.79838 34822 ft 476 kts 97°
2026-05-07 16:55 40.46993 -25.71278 34817 ft 476 kts 97°
2026-05-07 16:55 40.45769 -25.62749 34814 ft 477 kts 97°
2026-05-07 16:56 40.44541 -25.54236 34812 ft 477 kts 97°
2026-05-07 16:56 40.42680 -25.41436 34811 ft 477 kts 97°
2026-05-07 16:57 40.41434 -25.32915 34808 ft 477 kts 98°
2026-05-07 16:57 40.40182 -25.24398 34806 ft 476 kts 98°
2026-05-07 16:58 40.38927 -25.15906 34804 ft 476 kts 98°
2026-05-07 16:58 40.37664 -25.07409 34795 ft 476 kts 98°
2026-05-07 16:59 40.36381 -24.98825 34798 ft 477 kts 98°
2026-05-07 16:59 40.35106 -24.90336 34790 ft 477 kts 99°
2026-05-07 17:00 40.33821 -24.81830 34784 ft 476 kts 99°
2026-05-07 17:00 40.32532 -24.73335 34785 ft 476 kts 99°
2026-05-07 17:01 40.31239 -24.64859 34781 ft 476 kts 99°
2026-05-07 17:01 40.29939 -24.56381 34779 ft 476 kts 99°
2026-05-07 17:02 40.28622 -24.47840 34778 ft 476 kts 99°
2026-05-07 17:02 40.27305 -24.39340 34783 ft 476 kts 99°
2026-05-07 17:03 40.25973 -24.30780 34778 ft 476 kts 100°
2026-05-07 17:03 40.24650 -24.22329 34773 ft 476 kts 100°
2026-05-07 17:04 40.23308 -24.13810 34761 ft 476 kts 100°
2026-05-07 17:04 40.21964 -24.05312 34761 ft 476 kts 100°
2026-05-07 17:05 40.20625 -23.96885 34751 ft 476 kts 100°
2026-05-07 17:05 40.19272 -23.88410 34758 ft 475 kts 100°
2026-05-07 17:06 40.17921 -23.79989 34757 ft 475 kts 101°
2026-05-07 17:06 40.16553 -23.71512 34754 ft 476 kts 101°
2026-05-07 17:07 40.15183 -23.63064 34761 ft 476 kts 101°
2026-05-07 17:07 40.13813 -23.54651 34754 ft 477 kts 101°
2026-05-07 17:08 40.12424 -23.46171 34756 ft 476 kts 101°
2026-05-07 17:08 40.11035 -23.37720 34749 ft 477 kts 101°
2026-05-07 17:09 40.09640 -23.29281 34747 ft 476 kts 102°
2026-05-07 17:09 40.08237 -23.20827 34740 ft 476 kts 102°
2026-05-07 17:10 40.06830 -23.12396 34747 ft 475 kts 102°
2026-05-07 17:10 40.05421 -23.03995 34744 ft 474 kts 102°
2026-05-07 17:11 40.04012 -22.95628 34756 ft 475 kts 102°
2026-05-07 17:11 40.02589 -22.87213 34762 ft 475 kts 102°
2026-05-07 17:12 40.01160 -22.78804 34758 ft 477 kts 102°
2026-05-07 17:12 39.99721 -22.70378 34759 ft 477 kts 102°
2026-05-07 17:13 39.98278 -22.61979 34755 ft 477 kts 102°
2026-05-07 17:13 39.96817 -22.53504 34750 ft 476 kts 102°
2026-05-07 17:14 39.95364 -22.45111 34741 ft 474 kts 102°
2026-05-07 17:14 39.93911 -22.36759 34742 ft 475 kts 102°
2026-05-07 17:15 39.92450 -22.28390 34742 ft 475 kts 103°
2026-05-07 17:15 39.90978 -22.20009 34753 ft 475 kts 103°
2026-05-07 17:16 39.89505 -22.11661 34743 ft 475 kts 103°
2026-05-07 17:16 39.88022 -22.03294 34741 ft 475 kts 103°
2026-05-07 17:17 39.86530 -21.94909 34744 ft 475 kts 103°
2026-05-07 17:17 39.85025 -21.86485 34733 ft 474 kts 103°
2026-05-07 17:18 39.83520 -21.78108 34726 ft 474 kts 104°
2026-05-07 17:18 39.82017 -21.69771 34720 ft 474 kts 104°
2026-05-07 17:19 39.80514 -21.61471 34723 ft 474 kts 104°
2026-05-07 17:19 39.79002 -21.53167 34718 ft 475 kts 104°
2026-05-07 17:20 39.77477 -21.44820 34730 ft 475 kts 104°
2026-05-07 17:20 39.75952 -21.36512 34725 ft 475 kts 104°
2026-05-07 17:21 39.74424 -21.28219 34716 ft 474 kts 105°
2026-05-07 17:21 39.72886 -21.19904 34727 ft 474 kts 105°
2026-05-07 17:22 39.71341 -21.11592 34730 ft 474 kts 105°
2026-05-07 17:22 39.69791 -21.03289 34726 ft 474 kts 105°
2026-05-07 17:23 39.68235 -20.94992 34724 ft 473 kts 105°
2026-05-07 17:23 39.66676 -20.86714 34725 ft 474 kts 105°
2026-05-07 17:24 39.65117 -20.78468 34722 ft 474 kts 105°
2026-05-07 17:24 39.63544 -20.70179 34719 ft 474 kts 105°
2026-05-07 17:25 39.61967 -20.61900 34721 ft 474 kts 105°
2026-05-07 17:25 39.60390 -20.53657 34717 ft 473 kts 105°
2026-05-07 17:26 39.58800 -20.45378 34726 ft 473 kts 105°
2026-05-07 17:26 39.57219 -20.37181 34719 ft 473 kts 105°
2026-05-07 17:27 39.55624 -20.28941 34728 ft 473 kts 106°
2026-05-07 17:27 39.54014 -20.20650 34720 ft 474 kts 106°
2026-05-07 17:28 39.52415 -20.12438 34728 ft 474 kts 106°
2026-05-07 17:28 39.50803 -20.04177 34727 ft 473 kts 105°
2026-05-07 17:29 39.49622 -19.95840 34725 ft 475 kts 98°
2026-05-07 17:29 39.48930 -19.87362 34735 ft 474 kts 97°
2026-05-07 17:30 39.48268 -19.78868 34743 ft 474 kts 97°
2026-05-07 17:30 39.47600 -19.70446 34745 ft 473 kts 97°
2026-05-07 17:31 39.46917 -19.61988 34737 ft 473 kts 97°
2026-05-07 17:31 39.46265 -19.54010 34738 ft 473 kts 97°
2026-05-07 17:32 39.45560 -19.45445 34739 ft 473 kts 97°
2026-05-07 17:32 39.44858 -19.36988 34748 ft 472 kts 97°
2026-05-07 17:33 39.44154 -19.28572 34751 ft 470 kts 98°
2026-05-07 17:33 39.43442 -19.20180 34749 ft 469 kts 98°
2026-05-07 17:34 39.42725 -19.11782 34752 ft 470 kts 98°
2026-05-07 17:34 39.42005 -19.03412 34753 ft 470 kts 98°
2026-05-07 17:35 39.41278 -18.95028 34749 ft 470 kts 98°
2026-05-07 17:35 39.40548 -18.86696 34744 ft 470 kts 98°
2026-05-07 17:36 39.39810 -18.78319 34753 ft 468 kts 98°
2026-05-07 17:36 39.39067 -18.69978 34763 ft 467 kts 98°
2026-05-07 17:37 39.38317 -18.61633 34760 ft 467 kts 98°
2026-05-07 17:37 39.37567 -18.53334 34770 ft 466 kts 98°
2026-05-07 17:38 39.36805 -18.44979 34769 ft 466 kts 99°
2026-05-07 17:38 39.36044 -18.36708 34772 ft 465 kts 99°
2026-05-07 17:39 39.35277 -18.28427 34781 ft 464 kts 99°
2026-05-07 17:39 39.34505 -18.20154 34788 ft 464 kts 99°
2026-05-07 17:40 39.33729 -18.11916 34792 ft 464 kts 99°
2026-05-07 17:40 39.32944 -18.03646 34794 ft 463 kts 99°
2026-05-07 17:41 39.32158 -17.95418 34797 ft 463 kts 99°
2026-05-07 17:41 39.31372 -17.87238 34801 ft 463 kts 100°
2026-05-07 17:42 39.30575 -17.79023 34805 ft 461 kts 100°
2026-05-07 17:42 39.29771 -17.70801 34806 ft 461 kts 100°
2026-05-07 17:43 39.28964 -17.62608 34805 ft 461 kts 100°
2026-05-07 17:43 39.28149 -17.54388 34806 ft 461 kts 100°
2026-05-07 17:44 39.27330 -17.46190 34806 ft 461 kts 101°
2026-05-07 17:44 39.26509 -17.38036 34806 ft 461 kts 101°
2026-05-07 17:45 39.25679 -17.29850 34808 ft 461 kts 101°
2026-05-07 17:45 39.24841 -17.21648 34804 ft 461 kts 101°
2026-05-07 17:46 39.24000 -17.13453 34808 ft 460 kts 101°
2026-05-07 17:46 39.23159 -17.05328 34815 ft 458 kts 102°
2026-05-07 17:47 39.22313 -16.97220 34817 ft 457 kts 102°
2026-05-07 17:47 39.21466 -16.89138 34835 ft 457 kts 102°
2026-05-07 17:48 39.20607 -16.81014 34845 ft 457 kts 102°
2026-05-07 17:48 39.19749 -16.72948 34860 ft 457 kts 102°
2026-05-07 17:49 39.18879 -16.64824 34858 ft 456 kts 102°
2026-05-07 17:49 39.18007 -16.56730 34859 ft 455 kts 103°
2026-05-07 17:50 39.17126 -16.48620 34859 ft 455 kts 103°
2026-05-07 17:50 39.16247 -16.40578 34868 ft 453 kts 103°
2026-05-07 17:51 39.15362 -16.32544 34760 ft 453 kts 104°
2026-05-07 17:51 39.14474 -16.24526 34842 ft 454 kts 104°
2026-05-07 17:52 39.13575 -16.16464 34854 ft 454 kts 104°
2026-05-07 17:52 39.12675 -16.08420 34865 ft 452 kts 104°
2026-05-07 17:53 39.11780 -16.00484 34871 ft 450 kts 104°
2026-05-07 17:53 39.10880 -15.92548 34878 ft 449 kts 104°
2026-05-07 17:54 39.09975 -15.84633 34879 ft 450 kts 104°
2026-05-07 17:54 39.09056 -15.76641 34875 ft 451 kts 104°
2026-05-07 17:55 39.08136 -15.68688 34873 ft 452 kts 105°
2026-05-07 17:55 39.07211 -15.60719 34884 ft 450 kts 105°
2026-05-07 17:56 39.06281 -15.52786 34874 ft 451 kts 105°
2026-05-07 17:56 39.05345 -15.44828 34884 ft 450 kts 105°
2026-05-07 17:57 39.04561 -15.38197 34882 ft 450 kts 105°
2026-05-07 17:57 39.03462 -15.28944 34881 ft 448 kts 106°
2026-05-07 17:58 39.02513 -15.21017 34887 ft 450 kts 106°
2026-05-07 17:58 39.01568 -15.13128 34895 ft 449 kts 106°
2026-05-07 17:59 39.00603 -15.05161 34884 ft 450 kts 106°
2026-05-07 17:59 38.99816 -14.97227 34894 ft 457 kts 99°
2026-05-07 18:00 38.99759 -14.89031 34888 ft 458 kts 97°
2026-05-07 18:00 38.99783 -14.80885 34891 ft 458 kts 97°
2026-05-07 18:01 38.99793 -14.72734 34896 ft 456 kts 97°
2026-05-07 18:01 38.99784 -14.64624 34898 ft 456 kts 97°
2026-05-07 18:02 38.99762 -14.52352 34908 ft 454 kts 97°
2026-05-07 18:03 38.99736 -14.44255 34910 ft 455 kts 97°
2026-05-07 18:03 38.99704 -14.36134 34930 ft 455 kts 98°
2026-05-07 18:04 38.99665 -14.27988 34924 ft 454 kts 98°
2026-05-07 18:04 38.99624 -14.19899 34928 ft 454 kts 98°
2026-05-07 18:05 38.99576 -14.11793 34926 ft 453 kts 98°
2026-05-07 18:05 38.99524 -14.03736 34927 ft 452 kts 98°
2026-05-07 18:06 38.99463 -13.95650 34926 ft 453 kts 98°
2026-05-07 18:06 38.99399 -13.87612 34908 ft 451 kts 98°
2026-05-07 18:07 38.99329 -13.79593 34902 ft 452 kts 98°
2026-05-07 18:07 38.99256 -13.71550 34897 ft 452 kts 98°
2026-05-07 18:08 38.99175 -13.63446 34901 ft 453 kts 98°
2026-05-07 18:08 38.99088 -13.55401 34904 ft 453 kts 98°
2026-05-07 18:09 38.98994 -13.47220 34904 ft 454 kts 98°
2026-05-07 18:09 38.98897 -13.39159 34908 ft 453 kts 98°
2026-05-07 18:10 38.98793 -13.31000 34907 ft 454 kts 98°
2026-05-07 18:10 38.98683 -13.22883 34912 ft 454 kts 98°
2026-05-07 18:11 38.98567 -13.14763 34910 ft 454 kts 98°
2026-05-07 18:11 38.98445 -13.06640 34912 ft 455 kts 98°
2026-05-07 18:12 38.98319 -12.98510 34916 ft 456 kts 98°
2026-05-07 18:12 38.98186 -12.90347 34918 ft 455 kts 98°
2026-05-07 18:13 38.98048 -12.82197 34917 ft 457 kts 98°
2026-05-07 18:13 38.97902 -12.74039 34916 ft 458 kts 98°
2026-05-07 18:14 38.97753 -12.65860 34921 ft 459 kts 98°
2026-05-07 18:14 38.97598 -12.57721 34919 ft 459 kts 98°
2026-05-07 18:15 38.97434 -12.49453 34920 ft 461 kts 98°
2026-05-07 18:15 38.97268 -12.41222 34920 ft 461 kts 98°
2026-05-07 18:16 38.97094 -12.32971 34918 ft 460 kts 98°
2026-05-07 18:16 38.96913 -12.24747 34919 ft 462 kts 98°
2026-05-07 18:17 38.96727 -12.16473 34920 ft 460 kts 98°
2026-05-07 18:17 38.96534 -12.08274 34919 ft 463 kts 98°
2026-05-07 18:18 38.96335 -12.00010 34924 ft 464 kts 98°
2026-05-07 18:18 38.96131 -11.91696 34923 ft 465 kts 98°
2026-05-07 18:19 38.95921 -11.83392 34924 ft 465 kts 98°
2026-05-07 18:19 38.95703 -11.75092 34923 ft 466 kts 98°
2026-05-07 18:20 38.95480 -11.66768 34927 ft 466 kts 97°
2026-05-07 18:20 38.95253 -11.58466 34935 ft 468 kts 98°
2026-05-07 18:21 38.95018 -11.50160 34943 ft 468 kts 98°
2026-05-07 18:21 38.94777 -11.41812 34670 ft 470 kts 97°
2026-05-07 18:21 38.94654 -11.37620 34409 ft 467 kts 97°
2026-05-07 18:22 38.94532 -11.33484 33982 ft 465 kts 98°
2026-05-07 18:22 38.94450 -11.30734 33635 ft 462 kts 98°
2026-05-07 18:22 38.94284 -11.25264 32821 ft 459 kts 98°
2026-05-07 18:22 38.94159 -11.21193 32172 ft 458 kts 98°
2026-05-07 18:23 38.94032 -11.17116 31503 ft 457 kts 97°
2026-05-07 18:23 38.93902 -11.13059 30821 ft 457 kts 97°
2026-05-07 18:23 38.93772 -11.08986 30119 ft 457 kts 97°
2026-05-07 18:23 38.93640 -11.04953 29418 ft 458 kts 97°
2026-05-07 18:24 38.93508 -11.00851 28691 ft 459 kts 97°
2026-05-07 18:24 38.93375 -10.96769 27953 ft 460 kts 97°
2026-05-07 18:24 38.93241 -10.92667 27190 ft 462 kts 97°
2026-05-07 18:24 38.93105 -10.88563 26411 ft 465 kts 97°
2026-05-07 18:25 38.92965 -10.84424 25739 ft 466 kts 97°
2026-05-07 18:25 38.92821 -10.80247 25557 ft 476 kts 97°
2026-05-07 18:25 38.92676 -10.75981 25346 ft 477 kts 97°
2026-05-07 18:25 38.92533 -10.71751 25106 ft 474 kts 97°
2026-05-07 18:26 38.92391 -10.67632 24919 ft 459 kts 97°
2026-05-07 18:26 38.92256 -10.63586 24902 ft 443 kts 97°
2026-05-07 18:26 38.92127 -10.59749 24868 ft 428 kts 97°
2026-05-07 18:26 38.92000 -10.55953 24503 ft 421 kts 97°
2026-05-07 18:27 38.91873 -10.52254 24019 ft 412 kts 97°
2026-05-07 18:27 38.91748 -10.48627 23536 ft 405 kts 97°
2026-05-07 18:27 38.91626 -10.45061 23043 ft 400 kts 97°
2026-05-07 18:27 38.91498 -10.41486 22606 ft 400 kts 97°
2026-05-07 18:28 38.91372 -10.37933 22201 ft 399 kts 97°
2026-05-07 18:28 38.91246 -10.34413 21856 ft 395 kts 97°
2026-05-07 18:28 38.91124 -10.30931 21612 ft 385 kts 97°
2026-05-07 18:28 38.91006 -10.27539 21372 ft 376 kts 97°
2026-05-07 18:29 38.90888 -10.24250 21136 ft 368 kts 97°
2026-05-07 18:29 38.90773 -10.21028 20896 ft 360 kts 97°
2026-05-07 18:29 38.90659 -10.17874 20600 ft 350 kts 97°
2026-05-07 18:29 38.90542 -10.14719 19840 ft 355 kts 97°
2026-05-07 18:30 38.90421 -10.11565 19022 ft 360 kts 97°
2026-05-07 18:30 38.90302 -10.08377 18741 ft 352 kts 97°
2026-05-07 18:30 38.90187 -10.05313 18470 ft 345 kts 97°
2026-05-07 18:30 38.90077 -10.02263 18255 ft 336 kts 95°
2026-05-07 18:31 38.90309 -9.99327 18125 ft 330 kts 82°
2026-05-07 18:31 38.90837 -9.96484 17997 ft 320 kts 79°
2026-05-07 18:31 38.91404 -9.93767 17790 ft 313 kts 79°
2026-05-07 18:31 38.91968 -9.91128 17553 ft 309 kts 78°
2026-05-07 18:32 38.92533 -9.88480 17283 ft 308 kts 79°
2026-05-07 18:32 38.93093 -9.85845 16990 ft 306 kts 78°
2026-05-07 18:32 38.93647 -9.83230 16697 ft 304 kts 79°
2026-05-07 18:32 38.94195 -9.80624 16388 ft 302 kts 78°
2026-05-07 18:33 38.94739 -9.78027 16071 ft 300 kts 79°
2026-05-07 18:33 38.95273 -9.75476 15756 ft 297 kts 78°
2026-05-07 18:33 38.95815 -9.72884 15412 ft 299 kts 78°
2026-05-07 18:33 38.96342 -9.70335 15047 ft 297 kts 78°
2026-05-07 18:34 38.96869 -9.67784 14666 ft 294 kts 78°
2026-05-07 18:34 38.97392 -9.65250 14308 ft 291 kts 78°
2026-05-07 18:34 38.97910 -9.62754 14048 ft 285 kts 78°
2026-05-07 18:34 38.98416 -9.60328 13841 ft 282 kts 79°
2026-05-07 18:35 38.98927 -9.57884 13642 ft 282 kts 78°
2026-05-07 18:35 38.99304 -9.55452 13423 ft 277 kts 94°
2026-05-07 18:35 38.98794 -9.53153 13207 ft 266 kts 128°
2026-05-07 18:35 38.97464 -9.51584 12996 ft 261 kts 152°
2026-05-07 18:36 38.95744 -9.50849 12770 ft 259 kts 174°
2026-05-07 18:36 38.93957 -9.50957 12565 ft 258 kts 186°
2026-05-07 18:36 38.92165 -9.51242 12365 ft 257 kts 186°
2026-05-07 18:36 38.90399 -9.51502 12166 ft 257 kts 185°
2026-05-07 18:37 38.88614 -9.51751 11968 ft 255 kts 185°
2026-05-07 18:37 38.86843 -9.51988 11769 ft 254 kts 185°
2026-05-07 18:37 38.85086 -9.52216 11570 ft 254 kts 185°
2026-05-07 18:37 38.83349 -9.52439 11374 ft 253 kts 185°
2026-05-07 18:38 38.81581 -9.52662 11176 ft 252 kts 185°
2026-05-07 18:38 38.79836 -9.52882 10979 ft 252 kts 185°
2026-05-07 18:38 38.78102 -9.53099 10671 ft 252 kts 185°
2026-05-07 18:38 38.76359 -9.53316 10361 ft 251 kts 185°
2026-05-07 18:39 38.74623 -9.53533 10052 ft 249 kts 185°
2026-05-07 18:39 38.72899 -9.53749 9739 ft 248 kts 185°
2026-05-07 18:39 38.71194 -9.53961 9439 ft 247 kts 185°
2026-05-07 18:39 38.69474 -9.54174 9098 ft 246 kts 185°
2026-05-07 18:40 38.67774 -9.54384 8788 ft 245 kts 185°
2026-05-07 18:40 38.66101 -9.54592 8501 ft 244 kts 185°
2026-05-07 18:40 38.64413 -9.54802 8286 ft 239 kts 185°
2026-05-07 18:40 38.62785 -9.55005 8057 ft 233 kts 185°
2026-05-07 18:41 38.61163 -9.55207 7964 ft 233 kts 185°
2026-05-07 18:41 38.59550 -9.55306 7926 ft 233 kts 178°
2026-05-07 18:41 38.57929 -9.55075 7938 ft 234 kts 171°
2026-05-07 18:41 38.56330 -9.54681 7931 ft 235 kts 169°
2026-05-07 18:42 38.54818 -9.53919 7901 ft 238 kts 141°
2026-05-07 18:42 38.53925 -9.52159 7907 ft 246 kts 107°
2026-05-07 18:42 38.53859 -9.49977 7887 ft 248 kts 80°
2026-05-07 18:42 38.54313 -9.47872 7541 ft 248 kts 76°
2026-05-07 18:43 38.54799 -9.45759 7133 ft 250 kts 76°
2026-05-07 18:43 38.55268 -9.43623 6824 ft 246 kts 77°
2026-05-07 18:43 38.55702 -9.41560 6555 ft 241 kts 78°
2026-05-07 18:43 38.56118 -9.39516 6273 ft 232 kts 78°
2026-05-07 18:44 38.56509 -9.37554 5880 ft 227 kts 78°
2026-05-07 18:44 38.56891 -9.35612 5428 ft 222 kts 77°
2026-05-07 18:44 38.57257 -9.33747 5075 ft 212 kts 77°
2026-05-07 18:44 38.57614 -9.31927 4740 ft 205 kts 77°
2026-05-07 18:45 38.57956 -9.30185 4490 ft 198 kts 77°
2026-05-07 18:45 38.58287 -9.28495 4390 ft 199 kts 77°
2026-05-07 18:45 38.58626 -9.26766 4247 ft 199 kts 77°
2026-05-07 18:45 38.58960 -9.25061 4116 ft 199 kts 76°
2026-05-07 18:46 38.59630 -9.23522 3873 ft 198 kts 42°
2026-05-07 18:46 38.60802 -9.22643 3636 ft 195 kts 21°
2026-05-07 18:46 38.62036 -9.22057 3384 ft 183 kts 17°
2026-05-07 18:46 38.63187 -9.21524 3123 ft 166 kts 18°
2026-05-07 18:47 38.64208 -9.21020 2885 ft 152 kts 18°
2026-05-07 18:47 38.65179 -9.20520 2707 ft 150 kts 18°
2026-05-07 18:47 38.66154 -9.20007 2522 ft 149 kts 19°
2026-05-07 18:47 38.67107 -9.19497 2339 ft 148 kts 18°
2026-05-07 18:48 38.68063 -9.18985 2154 ft 148 kts 19°
2026-05-07 18:48 38.69015 -9.18472 1958 ft 147 kts 18°
2026-05-07 18:48 38.69964 -9.17962 1765 ft 147 kts 18°
2026-05-07 18:48 38.70897 -9.17461 1560 ft 146 kts 18°
2026-05-07 18:49 38.71846 -9.16953 1367 ft 146 kts 18°
2026-05-07 18:49 38.72787 -9.16449 1172 ft 145 kts 18°
2026-05-07 18:49 38.73709 -9.15957 974 ft 145 kts 19°
2026-05-07 18:49 38.74643 -9.15452 788 ft 146 kts 18°
2026-05-07 18:50 38.75591 -9.14956 592 ft 146 kts 20°
2026-05-07 18:50 38.76523 -9.14449 410 ft 145 kts 19°
2026-05-07 18:50 38.77409 -9.13982 354 ft 120 kts 22°
2026-05-07 18:50 38.78018 -9.13652 359 ft 69 kts 23°
2026-05-07 18:51 38.78335 -9.13397 356 ft 35 kts 45°
2026-05-07 18:51 38.78342 -9.13265 350 ft 14 kts 170°
2026-05-07 18:51 38.78267 -9.13292 350 ft 5 kts 201°
2026-05-07 18:51 38.78230 -9.13310 350 ft 5 kts 202°
2026-05-07 18:52 38.78190 -9.13331 350 ft 6 kts 204°
2026-05-07 18:52 38.78144 -9.13357 350 ft 7 kts 204°
2026-05-07 18:52 38.78085 -9.13387 348 ft 11 kts 201°
2026-05-07 18:52 38.77999 -9.13411 345 ft 13 kts 172°
2026-05-07 18:53 38.77900 -9.13382 341 ft 16 kts 169°
2026-05-07 18:53 38.77795 -9.13355 335 ft 13 kts 170°
2026-05-07 18:53 38.77729 -9.13340 333 ft 7 kts 169°
2026-05-07 18:53 38.77692 -9.13331 333 ft 4 kts 170°
2026-05-07 18:54 38.77655 -9.13323 332 ft 6 kts 173°
2026-05-07 18:54 38.77607 -9.13304 330 ft 4 kts 144°
2026-05-07 18:54 38.77598 -9.13250 328 ft 6 kts 76°
2026-05-07 18:54 38.77607 -9.13200 326 ft 3 kts 79°
2026-05-07 18:55 38.77608 -9.13198 326 ft 0 kts 78°